SQ3MKP-13 Weather Reports


time (UTC)temp
F
wind
direction
speed
knots
gust
knots
rain 1hr
in
rain 24hr
in
rain mn
in
humidity
%
barometer
mb
20260504214719 64 35 1.7 3.5 0.00 0.00 0.00 66 1002.1
20260504214218 65 18 0.0 0.0 0.00 0.00 0.00 63 1002.1
20260504213716 65 18 2.6 3.5 0.00 0.00 0.00 63 1002.1
20260504213216 65 42 2.6 3.5 0.00 0.00 0.00 63 1002.0
20260504212715 65 318 2.6 3.5 0.00 0.00 0.00 62 1002.0
20260504212214 65 54 1.7 2.6 0.00 0.00 0.00 63 1002.1
20260504211713 65 48 1.7 3.5 0.00 0.00 0.00 62 1002.1
20260504211212 66 352 0.9 2.6 0.00 0.00 0.00 62 1002.0
20260504210711 66 308 0.9 1.7 0.00 0.00 0.00 61 1001.9
20260504210210 66 350 1.7 3.5 0.00 0.00 0.00 60 1001.9
20260504205709 67 30 0.9 2.6 0.00 0.00 0.00 60 1001.9
20260504205208 66 329 0.0 1.7 0.00 0.00 0.00 60 1001.9
20260504204707 67 312 0.9 2.6 0.00 0.00 0.00 60 1001.9
20260504204206 67 285 0.9 1.7 0.00 0.00 0.00 59 1001.9
20260504203705 67 294 0.9 1.7 0.00 0.00 0.00 58 1002.0
20260504203205 67 300 0.0 0.9 0.00 0.00 0.00 59 1002.0
20260504202704 67 30 1.7 1.7 0.00 0.00 0.00 58 1001.9
20260504202202 66 356 1.7 3.5 0.00 0.00 0.00 58 1001.9
20260504201701 66 252 0.0 1.7 0.00 0.00 0.00 61 1001.9
20260504201201 66 343 0.0 0.0 0.00 0.00 0.00 61 1001.9
20260504200700 66 133 0.0 0.0 0.00 0.00 0.00 63 1001.9
20260504200159 66 136 0.0 0.0 0.00 0.00 0.00 63 1001.9
20260504195658 66 118 0.0 0.0 0.00 0.00 0.00 62 1001.9
20260504195157 66 119 0.0 0.0 0.00 0.00 0.00 62 1001.9
20260504194656 66 119 0.0 0.0 0.00 0.00 0.00 63 1001.9
20260504194155 66 125 0.0 0.0 0.00 0.00 0.00 62 1001.9
20260504193654 67 98 0.0 0.0 0.00 0.00 0.00 61 1001.9
20260504193153 67 92 0.0 0.0 0.00 0.00 0.00 60 1001.9
20260504192653 66 91 0.0 0.0 0.00 0.00 0.00 61 1001.8
20260504192152 66 96 0.0 0.0 0.00 0.00 0.00 62 1001.8
20260504191650 67 96 0.0 0.0 0.00 0.00 0.00 59 1001.8
20260504191149 67 78 0.0 0.0 0.00 0.00 0.00 59 1001.8
20260504190649 67 70 0.0 0.0 0.00 0.00 0.00 59 1001.8
20260504190147 67 79 0.0 0.0 0.00 0.00 0.00 58 1001.8
20260504185647 67 121 0.0 0.0 0.00 0.00 0.00 57 1001.8
20260504185145 67 122 0.0 0.0 0.00 0.00 0.00 57 1001.8
20260504184645 68 125 0.0 0.0 0.00 0.00 0.00 57 1001.8
20260504184144 68 125 0.0 0.0 0.00 0.00 0.00 56 1001.8
20260504183643 69 136 0.0 0.0 0.00 0.00 0.00 56 1001.7
20260504183142 69 119 0.0 0.0 0.00 0.00 0.00 54 1001.7
20260504182641 69 119 0.0 0.0 0.00 0.00 0.00 53 1001.7
20260504182139 70 102 0.0 0.0 0.00 0.00 0.00 53 1001.6
20260504181638 70 145 0.0 0.0 0.00 0.00 0.00 52 1001.6
20260504181138 70 288 0.0 0.0 0.00 0.00 0.00 52 1001.6
20260504180637 71 30 0.0 1.7 0.00 0.00 0.00 50 1001.5
20260504180136 71 356 0.0 0.0 0.00 0.00 0.00 50 1001.6
20260504175635 71 352 0.9 2.6 0.00 0.00 0.00 49 1001.6
20260504175134 71 269 0.9 3.5 0.00 0.00 0.00 48 1001.6
20260504174633 71 0 1.7 2.6 0.00 0.00 0.00 48 1001.5
20260504174133 71 337 1.7 3.5 0.00 0.00 0.00 47 1001.5
20260504173632 71 312 1.7 3.5 0.00 0.00 0.00 48 1001.5
20260504173131 71 258 1.7 2.6 0.00 0.00 0.00 48 1001.5
20260504172630 71 279 1.7 3.5 0.00 0.00 0.00 48 1001.5
20260504172129 71 240 3.5 5.2 0.00 0.00 0.00 48 1001.5
20260504171628 71 270 3.5 6.1 0.00 0.00 0.00 48 1001.5
20260504171127 71 282 2.6 3.5 0.00 0.00 0.00 47 1001.5
20260504170626 71 302 2.6 6.1 0.00 0.00 0.00 47 1001.5
20260504170125 72 316 2.6 5.2 0.00 0.00 0.00 47 1001.6
20260504160114 73 313 3.5 6.1 0.00 0.00 0.00 45 1001.6
20260504151105 74 326 4.3 8.7 0.00 0.00 0.00 44 1001.6
20260504150604 73 284 3.5 7.8 0.00 0.00 0.00 44 1001.7
20260504150103 73 319 3.5 8.7 0.00 0.00 0.00 44 1001.7
20260504141053 75 216 3.5 4.3 0.00 0.00 0.00 40 1001.8
20260504140552 75 180 4.3 5.2 0.00 0.00 0.00 40 1002.0
20260504130542 74 258 7.0 10.4 0.00 0.00 0.00 40 1002.3
20260504110519 73 233 5.2 9.6 0.00 0.00 0.00 43 1002.8
20260504100509 72 205 2.6 4.3 0.00 0.00 0.00 46 1003.3
20260504081949 69 197 0.9 2.6 0.00 0.00 0.00 50 1002.9
20260504081448 69 163 2.6 5.2 0.00 0.00 0.00 50 1002.9
20260504080948 68 234 2.6 4.3 0.00 0.00 0.00 51 1003.1
20260504080447 68 216 2.6 5.2 0.00 0.00 0.00 51 1002.9
20260504050413 58 234 1.7 2.6 0.00 0.00 0.00 61 1002.3
20260504045912 58 238 0.9 1.7 0.00 0.00 0.00 61 1002.2
20260504045410 57 217 0.9 2.6 0.00 0.00 0.00 61 1002.2
20260504044910 57 216 0.9 1.7 0.00 0.00 0.00 61 1002.1
20260504044408 57 210 0.0 1.7 0.00 0.00 0.00 61 1002.0
20260504043907 57 233 0.0 1.7 0.00 0.00 0.00 61 1002.0
20260504043406 56 180 0.9 2.6 0.00 0.00 0.00 61 1002.0
20260504042905 55 172 0.0 0.9 0.00 0.00 0.00 63 1002.0
20260504042405 55 198 0.9 1.7 0.00 0.00 0.00 63 1002.0
20260504041904 55 222 1.7 2.6 0.00 0.00 0.00 64 1001.9
20260504041403 55 198 1.7 3.5 0.00 0.00 0.00 64 1001.9
20260504040902 55 234 0.0 0.0 0.00 0.00 0.00 64 1001.8
20260504040401 55 162 0.0 2.6 0.00 0.00 0.00 64 1001.8
20260504035900 55 252 1.7 3.5 0.00 0.00 0.00 64 1001.7
20260504035359 55 200 0.0 1.7 0.00 0.00 0.00 63 1001.6
20260504034858 55 192 0.9 2.6 0.00 0.00 0.00 62 1001.7
20260504034357 55 198 0.9 2.6 0.00 0.00 0.00 63 1001.6
20260504033856 55 222 0.9 1.7 0.00 0.00 0.00 64 1001.6
20260504033356 55 186 0.9 1.7 0.00 0.00 0.00 63 1001.6
20260504032854 55 154 0.0 1.7 0.00 0.00 0.00 63 1001.6
20260504032354 55 137 0.9 1.7 0.00 0.00 0.00 62 1001.5
20260504031853 55 127 0.9 2.6 0.00 0.00 0.00 62 1001.5
20260504031352 55 144 0.9 1.7 0.00 0.00 0.00 62 1001.4
20260504030851 55 150 1.7 2.6 0.00 0.00 0.00 61 1001.5
20260504030350 55 198 1.7 3.5 0.00 0.00 0.00 61 1001.5
20260504025849 56 132 0.9 2.6 0.00 0.00 0.00 60 1001.6
20260504025348 56 194 1.7 3.5 0.00 0.00 0.00 60 1001.6
20260504024848 56 162 0.9 1.7 0.00 0.00 0.00 60 1001.5
20260504024346 56 167 0.9 3.5 0.00 0.00 0.00 60 1001.6
20260504023846 56 211 2.6 3.5 0.00 0.00 0.00 59 1001.6
20260504023345 56 174 1.7 2.6 0.00 0.00 0.00 59 1001.6
20260504022844 56 171 2.6 4.3 0.00 0.00 0.00 59 1001.6
20260504022343 56 168 1.7 4.3 0.00 0.00 0.00 59 1001.6
20260504021842 55 144 1.7 2.6 0.00 0.00 0.00 60 1001.6
20260504021341 55 172 0.9 1.7 0.00 0.00 0.00 60 1001.6
20260504020840 56 136 0.0 1.7 0.00 0.00 0.00 60 1001.7
20260504020339 56 159 0.0 1.7 0.00 0.00 0.00 60 1001.8
20260504015838 55 200 0.0 0.0 0.00 0.00 0.00 61 1001.8
20260504015337 56 136 0.0 0.0 0.00 0.00 0.00 61 1001.8
20260504014836 56 132 0.0 0.0 0.00 0.00 0.00 59 1001.8
20260504014335 57 168 0.0 0.0 0.00 0.00 0.00 58 1001.8
20260504013835 57 204 0.0 0.0 0.00 0.00 0.00 57 1001.8
20260504013333 58 176 0.0 0.9 0.00 0.00 0.00 55 1001.6
20260504012833 58 156 0.0 0.0 0.00 0.00 0.00 55 1001.7
20260504012332 59 246 0.9 2.6 0.00 0.00 0.00 53 1001.6
20260504011830 59 150 0.9 3.5 0.00 0.00 0.00 53 1001.6
20260504011330 59 210 1.7 3.5 0.00 0.00 0.00 53 1001.6
20260504010828 59 186 1.7 3.5 0.00 0.00 0.00 53 1001.5
20260504010328 59 156 1.7 4.3 0.00 0.00 0.00 53 1001.5
20260504005827 59 144 0.9 2.6 0.00 0.00 0.00 53 1001.4
20260504005325 59 162 0.9 3.5 0.00 0.00 0.00 53 1001.4
20260504004825 59 154 1.7 3.5 0.00 0.00 0.00 52 1001.5
20260504004324 59 149 2.6 3.5 0.00 0.00 0.00 52 1001.4
20260504003823 60 198 1.7 3.5 0.00 0.00 0.00 51 1001.4
20260504003322 59 165 1.7 3.5 0.00 0.00 0.00 51 1001.3
20260504002821 60 127 1.7 3.5 0.00 0.00 0.00 52 1001.4
20260504002320 60 155 1.7 3.5 0.00 0.00 0.00 52 1001.4
20260504001819 60 162 0.9 3.5 0.00 0.00 0.00 52 1001.4
20260504001318 60 120 0.9 1.7 0.00 0.00 0.00 51 1001.5
20260504000818 60 165 0.9 2.6 0.00 0.00 0.00 51 1001.5
20260504000317 60 157 0.9 2.6 0.00 0.00 0.00 51 1001.5
20260503235815 60 210 1.7 3.5 0.00 0.00 0.00 50 1001.5
20260503235314 61 213 1.7 3.5 0.00 0.00 0.00 50 1001.5
20260503234814 61 174 0.0 0.0 0.00 0.00 0.00 49 1001.4
20260503234313 62 160 1.7 2.6 0.00 0.00 0.00 49 1001.5
20260503233812 62 151 2.6 4.3 0.00 0.00 0.00 48 1001.5
20260503233311 62 176 2.6 4.3 0.00 0.00 0.00 47 1001.4
20260503232810 62 228 2.6 4.3 0.00 0.00 0.00 47 1001.5
20260503232309 62 149 2.6 5.2 0.00 0.00 0.00 47 1001.5
20260503231809 62 166 2.6 4.3 0.00 0.00 0.00 47 1001.5
20260503231308 63 234 2.6 4.3 0.00 0.00 0.00 47 1001.5
20260503230806 63 172 2.6 6.1 0.00 0.00 0.00 47 1001.5
20260503230306 63 174 2.6 4.3 0.00 0.00 0.00 46 1001.6
20260503225805 63 160 2.6 5.2 0.00 0.00 0.00 46 1001.5
20260503225305 63 188 3.5 5.2 0.00 0.00 0.00 45 1001.5
20260503224803 64 174 2.6 4.3 0.00 0.00 0.00 45 1001.5
20260503224302 64 160 2.6 5.2 0.00 0.00 0.00 45 1001.5
20260503223801 64 178 3.5 5.2 0.00 0.00 0.00 44 1001.5
20260503223300 65 192 3.5 5.2 0.00 0.00 0.00 44 1001.5
20260503222800 65 187 2.6 5.2 0.00 0.00 0.00 42 1001.5
20260503222258 65 200 2.6 5.2 0.00 0.00 0.00 42 1001.5
20260503221757 65 246 3.5 6.1 0.00 0.00 0.00 42 1001.5
20260503221257 65 161 3.5 7.8 0.00 0.00 0.00 42 1001.6
20260503220755 65 163 3.5 6.1 0.00 0.00 0.00 43 1001.6
20260503220254 65 150 3.5 6.1 0.00 0.00 0.00 42 1001.6
20260503215754 66 218 2.6 3.5 0.00 0.00 0.00 42 1001.6
20260503215253 66 168 3.5 5.2 0.00 0.00 0.00 42 1001.7